Notices

What's New in latest Release from April 7th, 2021:

- Updated Glossary, including Speed of Maximum Gust, and Total Hourly Precipitation

- Updated national and regional climate services offices contacts and prices information

- Addition of station inventory lists for 1981-2010, 1971-2000, and 1961-1990 Normals.

If you haven't already, please take our survey and provide feedback about our website: https://eccc.sondage-survey.ca/f/LanguageSelection.aspx?s=442ca660-fcf1-47c0-95a9-59707d6fd709

Hourly Data Report for July 20, 2018

OTTAWA INTL A
ONTARIO
Current Station Operator: NAVCAN

45°19'00.000" N
75°40'00.000" W
114.90 m
6106001
71628
YOW

Download Data

Hourly Data (July 2018)
Hourly Data Report for July 20, 2018
TIME
LST
Temp Definition
°C
Dew Point Definition
°C
Rel Hum Definition
%
Precip. Amount Definition
mm

Wind Dir Definition
10's deg

Wind Spd Definition
km/h
Visibility Definition
km
Stn Press Definition
kPa
Hmdx Definition


Wind Chill Definition


Weather Definition


00:00 18.1 11.2 64   20 8 24.1 100.47     LegendNANA
01:00 16.4 11.1 71   19 6 24.1 100.47     Mainly Clear
02:00 14.8 10.7 76   16 3 24.1 100.49     LegendNANA
03:00 13.9 10.8 81   15 7 24.1 100.50     LegendNANA
04:00 14.6 11.2 80   17 11 24.1 100.52     Mostly Cloudy
05:00 14.4 11.0 80   14 7 24.1 100.56     LegendNANA
06:00 15.6 12.1 79   11 10 24.1 100.60     LegendNANA
07:00 19.7 12.4 63   10 7 24.1 100.65     Mainly Clear
08:00 20.9 12.5 58   14 5 24.1 100.66     LegendNANA
09:00 24.1 13.1 49   13 8 24.1 100.63 27   LegendNANA
10:00 26.4 13.0 43   14 7 24.1 100.61 29   Mainly Clear
11:00 28.6 11.9 35   10 16 24.1 100.56 31   LegendNANA
12:00 28.8 11.2 33   17 14 24.1 100.51 31   LegendNANA
13:00 30.3 10.5 29   15 21 24.1 100.46 32   Mainly Clear
14:00 30.2 10.7 30   16 14 24.1 100.41 32   LegendNANA
15:00 30.7 11.9 31   16 14 24.1 100.35 33   LegendNANA
16:00 31.0 12.7 32   13 17 24.1 100.32 34   Mainly Clear
17:00 30.7 13.2 34   12 15 24.1 100.28 34   LegendNANA
18:00 30.2 13.7 36   12 14 24.1 100.25 33   LegendNANA
19:00 27.6 14.7 45   13 7 24.1 100.26 31   Mainly Clear
20:00 25.0 15.0 53   8 11 24.1 100.26 29   LegendNANA
21:00 23.2 15.0 59   9 11 24.1 100.30 27   LegendNANA
22:00 21.1 15.2 68   19 7 24.1 100.32 25   Mainly Clear
23:00 20.1 14.8 71   13 8 24.1 100.30     LegendNANA

Notes on Data Quality.

Legend

  • E = Estimated
  • M = Missing
  • NA = Not Available*
  • [empty] = Indicates an unobserved value
Date modified: